Time,TemperatureF,DewpointF,PressureIn,WindDirection,WindDirectionDegrees,WindSpeedMPH,WindSpeedGustMPH,Humidity,HourlyPrecipIn,Conditions,Clouds,dailyrainin,SoftwareType,DateUTC
2013-01-29 00:03:00,76.0,69.0,30.17,ESE,117,8.0,-999.0,79,-99.99,,,-99.99,,2013-01-29 05:03:00,
2013-01-29 00:12:00,76.0,69.0,30.17,ESE,117,8.0,-999.0,79,-99.99,,,-99.99,,2013-01-29 05:12:00,
2013-01-29 00:22:00,76.0,69.0,30.16,East,92,10.0,-999.0,79,-99.99,,,-99.99,,2013-01-29 05:22:00,
2013-01-29 00:32:00,76.0,69.0,30.16,ESE,108,11.0,-999.0,78,-99.99,,,-99.99,,2013-01-29 05:32:00,
2013-01-29 00:42:00,76.0,69.0,30.16,ESE,108,11.0,-999.0,78,-99.99,,,-99.99,,2013-01-29 05:42:00,
2013-01-29 00:52:00,75.0,68.0,30.16,East,88,10.0,-999.0,79,-99.99,,,-99.99,,2013-01-29 05:52:00,
2013-01-29 01:02:00,76.0,69.0,30.16,East,89,10.0,-999.0,80,-99.99,,,-99.99,,2013-01-29 06:02:00,
2013-01-29 01:11:00,76.0,69.0,30.16,East,89,10.0,-999.0,80,-99.99,,,-99.99,,2013-01-29 06:11:00,
2013-01-29 01:21:00,76.0,70.0,30.16,SE,128,11.0,-999.0,81,-99.99,,,-99.99,,2013-01-29 06:21:00,
2013-01-29 01:32:00,75.0,69.0,30.16,SE,128,9.0,-999.0,81,-99.99,,,-99.99,,2013-01-29 06:32:00,
2013-01-29 01:42:00,75.0,69.0,30.16,SE,128,9.0,-999.0,81,-99.99,,,-99.99,,2013-01-29 06:42:00,
2013-01-29 01:52:00,75.0,69.0,30.16,SE,125,11.0,-999.0,81,-99.99,,,-99.99,,2013-01-29 06:52:00,
2013-01-29 02:01:00,75.0,69.0,30.15,ESE,119,12.0,-999.0,81,-99.99,,,-99.99,,2013-01-29 07:01:00,
2013-01-29 02:11:00,75.0,69.0,30.15,ESE,119,12.0,-999.0,81,-99.99,,,-99.99,,2013-01-29 07:11:00,
2013-01-29 02:21:00,75.0,69.0,30.15,East,88,10.0,-999.0,81,-99.99,,,-99.99,,2013-01-29 07:21:00,
2013-01-29 02:32:00,75.0,69.0,30.15,East,90,8.0,-999.0,81,-99.99,,,-99.99,,2013-01-29 07:32:00,
2013-01-29 02:42:00,75.0,69.0,30.15,East,90,8.0,-999.0,81,-99.99,,,-99.99,,2013-01-29 07:42:00,
2013-01-29 02:52:00,75.0,68.0,30.15,East,92,9.0,-999.0,80,-99.99,,,-99.99,,2013-01-29 07:52:00,
2013-01-29 03:02:00,75.0,68.0,30.14,East,101,8.0,-999.0,80,-99.99,,,-99.99,,2013-01-29 08:02:00,
2013-01-29 03:11:00,75.0,68.0,30.14,East,101,8.0,-999.0,80,-99.99,,,-99.99,,2013-01-29 08:11:00,
2013-01-29 03:21:00,75.0,68.0,30.14,SE,130,12.0,-999.0,79,-99.99,,,-99.99,,2013-01-29 08:21:00,
2013-01-29 03:32:00,75.0,68.0,30.14,East,82,11.0,-999.0,79,-99.99,,,-99.99,,2013-01-29 08:32:00,
2013-01-29 03:42:00,75.0,68.0,30.14,East,82,11.0,-999.0,79,-99.99,,,-99.99,,2013-01-29 08:42:00,
2013-01-29 03:52:00,75.0,68.0,30.13,ESE,107,13.0,-999.0,79,-99.99,,,-99.99,,2013-01-29 08:52:00,
2013-01-29 04:02:00,75.0,68.0,30.13,SE,128,13.0,-999.0,79,-99.99,,,-99.99,,2013-01-29 09:02:00,
2013-01-29 04:11:00,75.0,68.0,30.13,SE,128,13.0,-999.0,79,-99.99,,,-99.99,,2013-01-29 09:11:00,
2013-01-29 04:21:00,75.0,68.0,30.12,SE,141,13.0,-999.0,79,-99.99,,,-99.99,,2013-01-29 09:21:00,
2013-01-29 04:32:00,75.0,68.0,30.12,SSE,161,12.0,-999.0,79,-99.99,,,-99.99,,2013-01-29 09:32:00,
2013-01-29 04:42:00,75.0,68.0,30.12,SSE,161,12.0,-999.0,79,-99.99,,,-99.99,,2013-01-29 09:42:00,
2013-01-29 04:52:00,75.0,68.0,30.12,East,100,10.0,-999.0,78,-99.99,,,-99.99,,2013-01-29 09:52:00,
2013-01-29 05:01:00,75.0,68.0,30.11,ESE,117,11.0,-999.0,79,-99.99,,,-99.99,,2013-01-29 10:01:00,
2013-01-29 05:11:00,75.0,68.0,30.11,ESE,117,11.0,-999.0,79,-99.99,,,-99.99,,2013-01-29 10:11:00,
2013-01-29 05:21:00,75.0,68.0,30.12,SE,128,12.0,-999.0,79,-99.99,,,-99.99,,2013-01-29 10:21:00,
2013-01-29 05:32:00,75.0,68.0,30.12,SE,145,13.0,-999.0,79,-99.99,,,-99.99,,2013-01-29 10:32:00,
2013-01-29 05:42:00,75.0,68.0,30.12,SE,145,13.0,-999.0,79,-99.99,,,-99.99,,2013-01-29 10:42:00,
2013-01-29 05:52:00,75.0,68.0,30.12,East,98,15.0,-999.0,80,-99.99,,,-99.99,,2013-01-29 10:52:00,
2013-01-29 06:02:00,75.0,68.0,30.12,ESE,105,12.0,-999.0,80,-99.99,,,-99.99,,2013-01-29 11:02:00,
2013-01-29 06:11:00,75.0,68.0,30.12,ESE,105,12.0,-999.0,80,-99.99,,,-99.99,,2013-01-29 11:11:00,
2013-01-29 06:22:00,75.0,69.0,30.13,SE,136,11.0,-999.0,81,-99.99,,,-99.99,,2013-01-29 11:22:00,
2013-01-29 06:32:00,75.0,68.0,30.13,East,98,13.0,-999.0,80,-99.99,,,-99.99,,2013-01-29 11:32:00,
2013-01-29 06:42:00,75.0,68.0,30.13,East,98,13.0,-999.0,80,-99.99,,,-99.99,,2013-01-29 11:42:00,
2013-01-29 06:53:00,75.0,68.0,30.13,ESE,121,10.0,-999.0,80,-99.99,,,-99.99,,2013-01-29 11:53:00,
2013-01-29 07:02:00,75.0,68.0,30.14,ESE,115,12.0,-999.0,80,-99.99,,,-99.99,,2013-01-29 12:02:00,
2013-01-29 07:12:00,75.0,68.0,30.14,ESE,115,12.0,-999.0,80,-99.99,,,-99.99,,2013-01-29 12:12:00,
2013-01-29 07:22:00,75.0,69.0,30.14,East,86,12.0,-999.0,81,-99.99,,,-99.99,,2013-01-29 12:22:00,
2013-01-29 07:33:00,75.0,69.0,30.14,SE,129,12.0,-999.0,81,-99.99,,,-99.99,,2013-01-29 12:33:00,
2013-01-29 07:43:00,75.0,69.0,30.14,SE,129,12.0,-999.0,81,-99.99,,,-99.99,,2013-01-29 12:43:00,
2013-01-29 07:53:00,75.0,69.0,30.14,SE,132,12.0,-999.0,81,-99.99,,,-99.99,,2013-01-29 12:53:00,
2013-01-29 08:02:00,75.0,69.0,30.15,ESE,112,11.0,-999.0,81,-99.99,,,-99.99,,2013-01-29 13:02:00,
2013-01-29 08:12:00,75.0,69.0,30.15,ESE,112,11.0,-999.0,81,-99.99,,,-99.99,,2013-01-29 13:12:00,
2013-01-29 08:22:00,75.0,69.0,30.16,ESE,113,10.0,-999.0,81,-99.99,,,-99.99,,2013-01-29 13:22:00,
2013-01-29 08:32:00,75.0,69.0,30.16,SE,131,10.0,-999.0,81,-99.99,,,-99.99,,2013-01-29 13:32:00,
2013-01-29 08:43:00,75.0,69.0,30.16,SE,131,10.0,-999.0,81,-99.99,,,-99.99,,2013-01-29 13:43:00,
2013-01-29 08:53:00,76.0,70.0,30.16,ESE,117,9.0,-999.0,81,-99.99,,,-99.99,,2013-01-29 13:53:00,
2013-01-29 09:02:00,76.0,70.0,30.16,SE,136,10.0,-999.0,81,-99.99,,,-99.99,,2013-01-29 14:02:00,
2013-01-29 09:12:00,76.0,70.0,30.17,ESE,111,8.0,-999.0,81,-99.99,,,-99.99,,2013-01-29 14:12:00,
2013-01-29 09:22:00,76.0,70.0,30.17,ESE,111,8.0,-999.0,81,-99.99,,,-99.99,,2013-01-29 14:22:00,
2013-01-29 09:33:00,76.0,70.0,30.16,ESE,117,9.0,-999.0,82,-99.99,,,-99.99,,2013-01-29 14:33:00,
2013-01-29 09:43:00,76.0,70.0,30.16,ESE,117,9.0,-999.0,82,-99.99,,,-99.99,,2013-01-29 14:43:00,
2013-01-29 09:53:00,76.0,70.0,30.17,ESE,123,11.0,-999.0,81,-99.99,,,-99.99,,2013-01-29 14:53:00,
2013-01-29 10:02:00,76.0,69.0,30.18,SE,132,10.0,-999.0,80,-99.99,,,-99.99,,2013-01-29 15:02:00,
2013-01-29 10:12:00,76.0,69.0,30.18,SE,132,10.0,-999.0,80,-99.99,,,-99.99,,2013-01-29 15:12:00,
2013-01-29 10:22:00,77.0,70.0,30.17,ESE,110,10.0,-999.0,79,-99.99,,,-99.99,,2013-01-29 15:22:00,
2013-01-29 10:33:00,77.0,70.0,30.17,SE,131,11.0,-999.0,80,-99.99,,,-99.99,,2013-01-29 15:33:00,
2013-01-29 10:43:00,77.0,70.0,30.17,SE,131,11.0,-999.0,80,-99.99,,,-99.99,,2013-01-29 15:43:00,
2013-01-29 10:53:00,77.0,70.0,30.17,ESE,112,12.0,-999.0,80,-99.99,,,-99.99,,2013-01-29 15:53:00,
2013-01-29 11:03:00,77.0,70.0,30.16,ESE,119,14.0,-999.0,79,-99.99,,,-99.99,,2013-01-29 16:03:00,
2013-01-29 11:12:00,77.0,70.0,30.16,ESE,119,14.0,-999.0,79,-99.99,,,-99.99,,2013-01-29 16:12:00,
2013-01-29 11:23:00,78.0,71.0,30.16,ESE,107,11.0,-999.0,80,-99.99,,,-99.99,,2013-01-29 16:23:00,
2013-01-29 11:32:00,78.0,71.0,30.16,ESE,122,9.0,-999.0,80,-99.99,,,-99.99,,2013-01-29 16:32:00,
2013-01-29 11:43:00,78.0,71.0,30.16,ESE,122,9.0,-999.0,80,-99.99,,,-99.99,,2013-01-29 16:43:00,
2013-01-29 11:53:00,77.0,71.0,30.16,ESE,111,12.0,-999.0,81,-99.99,,,-99.99,,2013-01-29 16:53:00,
2013-01-29 12:03:00,77.0,71.0,30.15,ESE,117,12.0,-999.0,82,-99.99,,,-99.99,,2013-01-29 17:03:00,
2013-01-29 12:12:00,77.0,71.0,30.15,ESE,117,12.0,-999.0,82,-99.99,,,-99.99,,2013-01-29 17:12:00,
2013-01-29 12:22:00,77.0,71.0,30.14,ESE,109,13.0,-999.0,82,-99.99,,,-99.99,,2013-01-29 17:22:00,
2013-01-29 12:33:00,77.0,71.0,30.14,East,98,12.0,-999.0,82,-99.99,,,-99.99,,2013-01-29 17:33:00,
2013-01-29 12:42:00,77.0,71.0,30.14,East,98,12.0,-999.0,82,-99.99,,,-99.99,,2013-01-29 17:42:00,
2013-01-29 12:52:00,77.0,71.0,30.13,ESE,115,12.0,-999.0,81,-99.99,,,-99.99,,2013-01-29 17:52:00,
2013-01-29 13:04:00,78.0,72.0,30.12,East,101,12.0,-999.0,81,-99.99,,,-99.99,,2013-01-29 18:04:00,
2013-01-29 13:12:00,78.0,72.0,30.12,East,101,12.0,-999.0,81,-99.99,,,-99.99,,2013-01-29 18:12:00,
2013-01-29 13:22:00,77.0,71.0,30.11,ESE,108,13.0,-999.0,82,-99.99,,,-99.99,,2013-01-29 18:22:00,
2013-01-29 13:33:00,77.0,71.0,30.10,SE,132,13.0,-999.0,82,-99.99,,,-99.99,,2013-01-29 18:33:00,
2013-01-29 13:42:00,77.0,71.0,30.10,SE,132,13.0,-999.0,82,-99.99,,,-99.99,,2013-01-29 18:42:00,
2013-01-29 13:52:00,77.0,71.0,30.10,ESE,116,12.0,-999.0,81,-99.99,,,-99.99,,2013-01-29 18:52:00,
2013-01-29 14:03:00,77.0,70.0,30.09,SE,144,13.0,-999.0,80,-99.99,,,-99.99,,2013-01-29 19:03:00,
2013-01-29 14:12:00,77.0,70.0,30.09,SE,144,13.0,-999.0,80,-99.99,,,-99.99,,2013-01-29 19:12:00,
2013-01-29 14:23:00,77.0,71.0,30.09,ESE,119,12.0,-999.0,81,-99.99,,,-99.99,,2013-01-29 19:23:00,
2013-01-29 14:32:00,77.0,71.0,30.09,ESE,115,13.0,-999.0,81,-99.99,,,-99.99,,2013-01-29 19:32:00,
2013-01-29 14:42:00,77.0,71.0,30.09,ESE,115,13.0,-999.0,81,-99.99,,,-99.99,,2013-01-29 19:42:00,
2013-01-29 14:52:00,77.0,71.0,30.08,SE,125,14.0,-999.0,82,-99.99,,,-99.99,,2013-01-29 19:52:00,
2013-01-29 15:02:00,77.0,71.0,30.08,East,90,13.0,-999.0,83,-99.99,,,-99.99,,2013-01-29 20:02:00,
2013-01-29 15:13:00,77.0,71.0,30.08,East,90,13.0,-999.0,83,-99.99,,,-99.99,,2013-01-29 20:13:00,
2013-01-29 15:22:00,77.0,71.0,30.08,ESE,115,14.0,-999.0,82,-99.99,,,-99.99,,2013-01-29 20:22:00,
2013-01-29 15:33:00,77.0,71.0,30.08,ESE,109,13.0,-999.0,83,-99.99,,,-99.99,,2013-01-29 20:33:00,
2013-01-29 15:42:00,77.0,71.0,30.08,ESE,109,13.0,-999.0,83,-99.99,,,-99.99,,2013-01-29 20:42:00,
2013-01-29 15:53:00,76.0,70.0,30.07,ESE,107,13.0,-999.0,83,-99.99,,,-99.99,,2013-01-29 20:53:00,
2013-01-29 16:03:00,76.0,70.0,30.07,ESE,107,14.0,-999.0,83,-99.99,,,-99.99,,2013-01-29 21:03:00,
2013-01-29 16:12:00,76.0,70.0,30.07,ESE,107,14.0,-999.0,83,-99.99,,,-99.99,,2013-01-29 21:12:00,
2013-01-29 16:22:00,76.0,70.0,30.07,SE,132,13.0,-999.0,83,-99.99,,,-99.99,,2013-01-29 21:22:00,
2013-01-29 16:33:00,76.0,70.0,30.07,ESE,111,13.0,-999.0,83,-99.99,,,-99.99,,2013-01-29 21:33:00,
2013-01-29 16:42:00,76.0,70.0,30.07,ESE,111,13.0,-999.0,83,-99.99,,,-99.99,,2013-01-29 21:42:00,
2013-01-29 16:53:00,76.0,70.0,30.06,ESE,108,13.0,-999.0,82,-99.99,,,-99.99,,2013-01-29 21:53:00,
2013-01-29 17:03:00,76.0,70.0,30.07,ESE,111,14.0,-999.0,82,-99.99,,,-99.99,,2013-01-29 22:03:00,
2013-01-29 17:12:00,76.0,70.0,30.07,ESE,111,14.0,-999.0,82,-99.99,,,-99.99,,2013-01-29 22:12:00,
2013-01-29 17:22:00,76.0,70.0,30.07,ESE,105,14.0,-999.0,82,-99.99,,,-99.99,,2013-01-29 22:22:00,
2013-01-29 17:33:00,76.0,70.0,30.07,ESE,105,12.0,-999.0,82,-99.99,,,-99.99,,2013-01-29 22:33:00,
2013-01-29 17:42:00,76.0,70.0,30.07,ESE,105,12.0,-999.0,82,-99.99,,,-99.99,,2013-01-29 22:42:00,
2013-01-29 17:53:00,76.0,70.0,30.07,ESE,113,13.0,-999.0,82,-99.99,,,-99.99,,2013-01-29 22:53:00,
2013-01-29 18:02:00,76.0,70.0,30.08,East,96,12.0,-999.0,82,-99.99,,,-99.99,,2013-01-29 23:02:00,
2013-01-29 18:12:00,76.0,70.0,30.08,East,96,12.0,-999.0,82,-99.99,,,-99.99,,2013-01-29 23:12:00,
2013-01-29 18:23:00,76.0,70.0,30.08,ESE,121,12.0,-999.0,82,-99.99,,,-99.99,,2013-01-29 23:23:00,
2013-01-29 18:33:00,76.0,70.0,30.08,ESE,117,10.0,-999.0,82,-99.99,,,-99.99,,2013-01-29 23:33:00,
2013-01-29 18:42:00,76.0,70.0,30.08,ESE,117,10.0,-999.0,82,-99.99,,,-99.99,,2013-01-29 23:42:00,
2013-01-29 18:53:00,75.0,69.0,30.08,ESE,105,11.0,-999.0,82,-99.99,,,-99.99,,2013-01-29 23:53:00,
2013-01-29 19:03:00,76.0,70.0,30.08,ESE,119,11.0,-999.0,81,-99.99,,,-99.99,,2013-01-30 00:03:00,
2013-01-29 19:12:00,76.0,70.0,30.08,ESE,119,11.0,-999.0,81,-99.99,,,-99.99,,2013-01-30 00:12:00,
2013-01-29 19:22:00,76.0,70.0,30.09,ESE,111,8.0,-999.0,81,-99.99,,,-99.99,,2013-01-30 00:22:00,
2013-01-29 19:32:00,75.0,68.0,30.09,East,90,9.0,-999.0,80,-99.99,,,-99.99,,2013-01-30 00:32:00,
2013-01-29 19:43:00,75.0,68.0,30.09,East,90,9.0,-999.0,80,-99.99,,,-99.99,,2013-01-30 00:43:00,
2013-01-29 19:53:00,76.0,69.0,30.09,ESE,115,9.0,-999.0,79,-99.99,,,-99.99,,2013-01-30 00:53:00,
2013-01-29 20:02:00,76.0,69.0,30.10,East,94,7.0,-999.0,79,-99.99,,,-99.99,,2013-01-30 01:02:00,
2013-01-29 20:12:00,76.0,69.0,30.10,East,94,7.0,-999.0,79,-99.99,,,-99.99,,2013-01-30 01:12:00,
2013-01-29 20:22:00,76.0,69.0,30.09,SE,135,8.0,-999.0,79,-99.99,,,-99.99,,2013-01-30 01:22:00,
2013-01-29 20:32:00,76.0,69.0,30.09,ESE,103,8.0,-999.0,79,-99.99,,,-99.99,,2013-01-30 01:32:00,
2013-01-29 20:42:00,76.0,69.0,30.09,ESE,103,8.0,-999.0,79,-99.99,,,-99.99,,2013-01-30 01:42:00,
2013-01-29 20:52:00,76.0,69.0,30.10,ESE,113,8.0,-999.0,79,-99.99,,,-99.99,,2013-01-30 01:52:00,
2013-01-29 21:02:00,76.0,69.0,30.09,East,99,10.0,-999.0,79,-99.99,,,-99.99,,2013-01-30 02:02:00,
2013-01-29 21:12:00,76.0,69.0,30.09,East,99,10.0,-999.0,79,-99.99,,,-99.99,,2013-01-30 02:12:00,
2013-01-29 21:22:00,76.0,69.0,30.09,ESE,113,10.0,-999.0,79,-99.99,,,-99.99,,2013-01-30 02:22:00,
2013-01-29 21:33:00,76.0,69.0,30.09,East,98,10.0,-999.0,78,-99.99,,,-99.99,,2013-01-30 02:33:00,
2013-01-29 21:42:00,76.0,69.0,30.09,East,98,10.0,-999.0,78,-99.99,,,-99.99,,2013-01-30 02:42:00,
2013-01-29 21:53:00,76.0,69.0,30.08,ESE,114,10.0,-999.0,79,-99.99,,,-99.99,,2013-01-30 02:53:00,
2013-01-29 22:03:00,76.0,69.0,30.08,East,98,11.0,-999.0,79,-99.99,,,-99.99,,2013-01-30 03:03:00,
2013-01-29 22:12:00,76.0,69.0,30.08,East,98,11.0,-999.0,79,-99.99,,,-99.99,,2013-01-30 03:12:00,
2013-01-29 22:22:00,75.0,68.0,30.09,ESE,111,9.0,-999.0,79,-99.99,,,-99.99,,2013-01-30 03:22:00,
2013-01-29 22:32:00,75.0,68.0,30.09,East,99,10.0,-999.0,78,-99.99,,,-99.99,,2013-01-30 03:32:00,
2013-01-29 22:42:00,75.0,68.0,30.09,East,99,10.0,-999.0,78,-99.99,,,-99.99,,2013-01-30 03:42:00,
2013-01-29 22:52:00,75.0,67.0,30.09,SE,126,10.0,-999.0,77,-99.99,,,-99.99,,2013-01-30 03:52:00,
2013-01-29 23:02:00,75.0,68.0,30.09,ESE,108,8.0,-999.0,78,-99.99,,,-99.99,,2013-01-30 04:02:00,
2013-01-29 23:12:00,75.0,68.0,30.09,ESE,108,8.0,-999.0,78,-99.99,,,-99.99,,2013-01-30 04:12:00,
2013-01-29 23:22:00,75.0,67.0,30.09,SE,128,10.0,-999.0,77,-99.99,,,-99.99,,2013-01-30 04:22:00,
2013-01-29 23:32:00,75.0,67.0,30.09,ESE,111,10.0,-999.0,77,-99.99,,,-99.99,,2013-01-30 04:32:00,
2013-01-29 23:42:00,75.0,67.0,30.09,ESE,111,10.0,-999.0,77,-99.99,,,-99.99,,2013-01-30 04:42:00,
2013-01-29 23:52:00,75.0,68.0,30.08,East,92,8.0,-999.0,78,-99.99,,,-99.99,,2013-01-30 04:52:00,